TimeCST,TemperatureF,Dew PointF,Humidity,Sea Level PressureIn,VisibilityMPH,Wind Direction,Wind SpeedMPH,Gust SpeedMPH,PrecipitationIn,Events,Conditions,WindDirDegrees,DateUTC
12:55 AM,57.2,52.0,83,30.09,10.0,Calm,Calm,-,N/A,,Overcast,0,2012-11-05 06:55:00
1:55 AM,57.0,51.3,81,30.08,10.0,Calm,Calm,-,N/A,,Mostly Cloudy,0,2012-11-05 07:55:00
2:12 AM,57.2,51.8,82,30.08,10.0,NNE,3.5,-,N/A,,Mostly Cloudy,30,2012-11-05 08:12:00
2:55 AM,55.8,52.0,87,30.07,10.0,Calm,Calm,-,N/A,,Overcast,0,2012-11-05 08:55:00
3:55 AM,55.6,51.8,87,30.06,10.0,Calm,Calm,-,N/A,,Overcast,0,2012-11-05 09:55:00
4:55 AM,56.1,51.8,85,30.08,10.0,Calm,Calm,-,N/A,,Overcast,0,2012-11-05 10:55:00
5:55 AM,55.9,51.1,84,30.06,10.0,Calm,Calm,-,N/A,,Overcast,0,2012-11-05 11:55:00
6:34 AM,55.4,51.8,88,30.05,10.0,SSE,4.6,-,N/A,,Overcast,160,2012-11-05 12:34:00
6:55 AM,56.1,50.9,83,30.06,10.0,Calm,Calm,-,N/A,,Overcast,0,2012-11-05 12:55:00
7:55 AM,57.4,49.6,75,30.06,10.0,SE,3.5,-,N/A,,Overcast,130,2012-11-05 13:55:00
8:55 AM,58.8,51.1,75,30.06,10.0,South,4.6,-,N/A,,Mostly Cloudy,170,2012-11-05 14:55:00
9:15 AM,59.0,51.8,77,30.06,10.0,South,4.6,-,N/A,,Mostly Cloudy,190,2012-11-05 15:15:00
9:55 AM,61.5,52.9,73,30.05,10.0,Calm,Calm,-,N/A,,Scattered Clouds,0,2012-11-05 15:55:00
10:55 AM,64.4,54.7,71,30.04,10.0,WNW,4.6,-,N/A,,Partly Cloudy,290,2012-11-05 16:55:00
11:55 AM,67.5,56.1,67,30.01,10.0,WNW,3.5,-,N/A,,Overcast,300,2012-11-05 17:55:00
12:55 PM,68.9,56.3,64,29.97,10.0,WNW,4.6,-,N/A,,Overcast,300,2012-11-05 18:55:00
1:55 PM,70.5,52.0,52,29.96,10.0,NW,9.2,-,N/A,,Overcast,310,2012-11-05 19:55:00
2:55 PM,71.4,50.2,47,29.96,10.0,NW,10.4,-,N/A,,Overcast,310,2012-11-05 20:55:00
3:55 PM,69.1,50.7,52,29.96,10.0,NW,9.2,-,N/A,,Overcast,320,2012-11-05 21:55:00
4:55 PM,65.7,48.7,54,29.97,10.0,NNW,10.4,-,N/A,,Scattered Clouds,340,2012-11-05 22:55:00
5:55 PM,61.3,49.8,66,29.99,10.0,NW,4.6,-,N/A,,Clear,320,2012-11-05 23:55:00
6:55 PM,57.0,50.2,78,29.99,10.0,Calm,Calm,-,N/A,,Clear,0,2012-11-06 00:55:00
7:55 PM,54.3,50.4,86,30.00,10.0,Calm,Calm,-,N/A,,Clear,0,2012-11-06 01:55:00
8:55 PM,52.3,50.0,92,30.01,10.0,Calm,Calm,-,N/A,,Clear,0,2012-11-06 02:55:00
9:55 PM,51.6,50.2,95,30.01,10.0,Calm,Calm,-,N/A,,Clear,0,2012-11-06 03:55:00
10:55 PM,55.6,47.1,73,30.02,10.0,North,10.4,-,N/A,,Clear,360,2012-11-06 04:55:00
11:55 PM,51.6,45.5,80,30.04,10.0,North,8.1,-,N/A,,Clear,360,2012-11-06 05:55:00